Weather History for KJAN - August, 2013

Change the Weather History Date:

Thursday, August 8, 2013

  Actual Average Record
Temperature  
Mean Temperature 88 °F 82 °F  
Max Temperature 99 °F 92 °F 104 °F (1935)
Min Temperature 76 °F 72 °F 58 °F (1989)
Degree Days  
Heating Degree Days 0 0  
Month to date heating degree days 0 0  
Since 1 June heating degree days 0 0  
Since 1 July heating degree days 0 0  
Cooling Degree Days 23 17  
Month to date cooling degree days 171 136  
Year to date cooling degree days 1412 1431  
Since 1 June cooling degree days 1094 1073  
Growing Degree Days 37 (Base 50)    
Moisture  
Dew Point 74 °F    
Average Humidity 70    
Maximum Humidity 94    
Minimum Humidity 45    
Precipitation  
Precipitation 0.00 in 0.16 in 2.74 in (1948)
Month to date precipitation 0.21 1.25  
Year to date precipitation 40.91 34.29  
Sea Level Pressure  
Sea Level Pressure 29.91 in    
Wind  
Wind Speed 5 mph (SSE)    
Max Wind Speed 12 mph    
Max Gust Speed 22 mph    
Visibility 9 miles    
Events      
T = Trace of Precipitation, MM = Missing Value Source: NWS Daily Summary

Daily Weather History Graph

Daily Weather History Graph

Search for Another Location

Airport or City:

Trip Planner

Search our weather history database for the weather conditions in past years. The results will help you decide how hot, cold, wet, or windy it might be!

Date:

Astronomy

Aug. 08, 2013 Rise Set
Actual Time 6:19 AM CDT 7:51 PM CDT
Civil Twilight 5:53 AM CDT 8:17 PM CDT
Nautical Twilight 5:22 AM CDT 8:49 PM CDT
Astronomical Twilight 4:49 AM CDT 9:21 PM CDT
Moon 7:57 AM CDT (8/8) 8:41 PM CDT (8/8)
Length of Visible Light 14h 24m
Length of Day
13h 31m
Waxing Crescent, 3% of the Moon is Illuminated
Aug 8
Waxing Crescent
Aug 14
First Quarter
Aug 20
Full
Aug 28
Last Quarter
Sep 5
New

Hourly Weather History & Observations

Time (CDT) Temp. Heat Index Dew Point Humidity Pressure Visibility Wind Dir Wind Speed Gust Speed Precip Events Conditions
12:54 AM 81.0 °F 86.2 °F 73.9 °F 79% 29.92 in 10.0 mi SSE 8.1 mph - N/A   Overcast
1:54 AM 79.0 °F - 73.9 °F 84% 29.92 in 10.0 mi SSE 5.8 mph - N/A   Clear
2:54 AM 79.0 °F - 73.9 °F 84% 29.91 in 9.0 mi SSE 5.8 mph - N/A   Clear
3:54 AM 78.1 °F - 75.0 °F 90% 29.90 in 9.0 mi South 5.8 mph - N/A   Clear
4:54 AM 77.0 °F - 73.9 °F 90% 29.91 in 8.0 mi Calm Calm - N/A   Clear
5:54 AM 75.9 °F - 73.9 °F 94% 29.92 in 7.0 mi SSE 4.6 mph - N/A   Clear
6:54 AM 77.0 °F - 73.9 °F 90% 29.93 in 6.0 mi Calm Calm - N/A   Clear
7:54 AM 80.1 °F 85.1 °F 75.0 °F 85% 29.95 in 9.0 mi Calm Calm - N/A   Clear
8:54 AM 84.9 °F 93.3 °F 75.0 °F 72% 29.95 in 9.0 mi SW 3.5 mph - N/A   Clear
9:54 AM 89.1 °F 99.1 °F 75.0 °F 63% 29.95 in 9.0 mi Calm Calm - N/A   Clear
10:54 AM 91.9 °F 99.5 °F 72.0 °F 52% 29.97 in 10.0 mi Variable 4.6 mph - N/A   Partly Cloudy
11:54 AM 93.0 °F 100.7 °F 72.0 °F 50% 29.95 in 10.0 mi Variable 3.5 mph - N/A   Scattered Clouds
12:54 PM 91.9 °F 99.5 °F 72.0 °F 52% 29.93 in 10.0 mi South 3.5 mph - N/A   Scattered Clouds
1:54 PM 95.0 °F 102.5 °F 71.1 °F 46% 29.91 in 10.0 mi Variable 4.6 mph - N/A   Mostly Cloudy
2:54 PM 97.0 °F 104.8 °F 71.1 °F 43% 29.89 in 10.0 mi South 9.2 mph - N/A   Mostly Cloudy
3:54 PM 97.0 °F 104.8 °F 71.1 °F 43% 29.88 in 10.0 mi SSE 6.9 mph - N/A   Mostly Cloudy
4:54 PM 96.1 °F 103.5 °F 71.1 °F 44% 29.87 in 10.0 mi South 9.2 mph - N/A   Mostly Cloudy
5:54 PM 96.1 °F 104.9 °F 72.0 °F 46% 29.87 in 10.0 mi Variable 5.8 mph - 0.01 in   Scattered Clouds
6:54 PM 93.0 °F 101.9 °F 73.0 °F 52% 29.88 in 10.0 mi SE 10.4 mph - N/A   Partly Cloudy
7:54 PM 89.1 °F 99.1 °F 75.0 °F 63% 29.89 in 10.0 mi SE 8.1 mph - N/A   Partly Cloudy
8:54 PM 87.1 °F 97.3 °F 75.9 °F 69% 29.90 in 10.0 mi SE 8.1 mph - N/A   Partly Cloudy
9:54 PM 86.0 °F 96.0 °F 75.9 °F 72% 29.91 in 10.0 mi SSE 10.4 mph - N/A   Partly Cloudy
10:54 PM 84.9 °F 94.1 °F 75.9 °F 74% 29.92 in 10.0 mi SSE 8.1 mph - N/A   Partly Cloudy
11:54 PM 82.9 °F 90.2 °F 75.0 °F 77% 29.94 in 9.0 mi South 6.9 mph - N/A   Clear